Simultaneous Nadir Overpasses (SNOs) Predictions

Prediction of SNOs between NOAA-19 and TERRA Satellite Orbit:

Table of predicted SNOs for the next 14.0 days since TLE Epoch: 4/30/2016
Index Date (NOAA-19) Time (NOAA-19) Lat,Lon (NOAA-19) SZA (NOAA-19 ) Date (TERRA) Time (TERRA) Lat,Lon (TERRA) SZA (TERRA ) Distance(km) Time Diff (sec)
1 05/01/2016 14:02:20 -73.60, 155.96 121.66 05/01/2016 14:03:07 -73.62, 156.04 121.63 3.51 47
2 05/01/2016 14:53:15 73.52, -36.59 58.26 05/01/2016 14:52:34 73.54, -36.49 58.27 3.44 41
3 05/03/2016 19:36:21 73.60,-107.49 57.69 05/03/2016 19:36:53 73.60,-107.44 57.69 1.65 32
4 05/03/2016 20:27:24 -73.47, 60.04 122.44 05/03/2016 20:26:23 -73.48, 59.95 122.44 3.10 61
5 05/06/2016 01:10:31 -73.60, -10.99 122.95 05/06/2016 01:10:41 -73.60, -10.90 122.95 3.03 10
6 05/06/2016 02:01:22 73.33, 156.92 56.81 05/06/2016 02:00:10 73.40, 156.34 56.84 20.21 72
7 05/08/2016 05:53:45 -74.07, -82.90 123.12 05/08/2016 05:54:54 -73.96, -81.18 123.15 54.23 69
8 05/08/2016 06:44:31 73.56, 85.65 56.41 05/08/2016 06:44:27 73.56, 85.59 56.41 1.92 4
9 05/10/2016 11:27:37 73.64, 14.73 55.92 05/10/2016 11:28:45 73.66, 14.73 55.94 2.16 68
10 05/10/2016 12:18:41 -73.58,-177.88 124.16 05/10/2016 12:18:15 -73.55,-177.88 124.19 2.89 26
11 05/12/2016 17:01:46 -73.63, 111.28 124.67 05/12/2016 17:02:33 -73.65, 111.25 124.64 2.72 47
12 05/12/2016 17:52:42 73.58, -81.35 55.29 05/12/2016 17:52:00 73.56, -81.30 55.26 2.78 42
